Change the Weather History Date:

Saturday, July 5, 2014

  Actual Average Record
Temperature  
Mean Temperature 66 °F 70 °F  
Max Temperature 75 °F 78 °F 99 °F (1911)
Min Temperature 57 °F 61 °F 45 °F (1927)
Degree Days  
Heating Degree Days 0 1  
Month to date heating degree days 0 5  
Since 1 June heating degree days 45 88  
Since 1 July heating degree days 0 5  
Cooling Degree Days 1 5  
Month to date cooling degree days 36 25  
Year to date cooling degree days 128 131  
Since 1 June cooling degree days 120 109  
Growing Degree Days 16 (Base 50)    
Moisture  
Dew Point 48 °F    
Average Humidity 60    
Maximum Humidity 86    
Minimum Humidity 33    
Precipitation  
Precipitation T in 0.12 in 1.95 in (1948)
Month to date precipitation 1.73 0.61  
Year to date precipitation 24.48 24.03  
Snow  
Snow 0.00 in 0.00 in 0.00 in (2002)
Month to date snowfall 0.0 0.0  
Since 1 June snowfall 0.0 0.0  
Since 1 July snowfall 0.0 0.0  
Snow Depth 0.00 in    
Sea Level Pressure  
Sea Level Pressure 29.97 in    
Wind  
Wind Speed 16 mph (WNW)    
Max Wind Speed 26 mph    
Max Gust Speed 38 mph    
Visibility 10 miles    
Events      
T = Trace of Precipitation, MM = Missing Value Source: NWS Daily Summary

Daily Weather History Graph

Daily Weather History Graph

Search for Another Location

Airport or City:

Trip Planner

Search our weather history database for the weather conditions in past years. The results will help you decide how hot, cold, wet, or windy it might be!

Date:

Astronomy

Jul. 05, 2014 Rise Set
Actual Time 5:17 AM EDT 8:26 PM EDT
Civil Twilight 4:42 AM EDT 9:01 PM EDT
Nautical Twilight 3:58 AM EDT 9:45 PM EDT
Astronomical Twilight 3:05 AM EDT 10:37 PM EDT
Moon 1:17 PM EDT (7/5) 12:09 AM EDT (7/5)
Length of Visible Light 16h 18m
Length of Day
15h 09m
First Quarter, 52% of the Moon is Illuminated
Jul 5
First Quarter
Jul 12
Full
Jul 18
Last Quarter
Jul 26
New
Aug 3
First Quarter

Hourly Weather History & Observations

Time (EDT) Temp. Dew Point Humidity Pressure Visibility Wind Dir Wind Speed Gust Speed Precip Events Conditions
12:54 AM 59.0 °F 55.0 °F 87% 29.84 in 10.0 mi NW 16.1 mph 27.6 mph 0.00 in   Overcast
1:05 AM 59.0 °F 54.0 °F 83% 29.84 in 10.0 mi NNW 20.7 mph 31.1 mph N/A   Overcast
1:54 AM 57.9 °F 54.0 °F 87% 29.85 in 10.0 mi WNW 18.4 mph 27.6 mph N/A   Overcast
2:54 AM 57.9 °F 53.1 °F 84% 29.87 in 10.0 mi WNW 18.4 mph - N/A   Overcast
3:54 AM 57.9 °F 52.0 °F 81% 29.88 in 10.0 mi WNW 15.0 mph 24.2 mph 0.00 in   Overcast
4:54 AM 57.9 °F 51.1 °F 78% 29.88 in 10.0 mi WNW 17.3 mph 24.2 mph 0.00 in   Mostly Cloudy
5:54 AM 57.9 °F 48.0 °F 70% 29.91 in 10.0 mi WNW 19.6 mph 29.9 mph N/A   Clear
6:54 AM 59.0 °F 46.0 °F 62% 29.93 in 10.0 mi WNW 20.7 mph 31.1 mph N/A   Clear
7:54 AM 61.0 °F 46.0 °F 58% 29.96 in 10.0 mi WNW 19.6 mph 27.6 mph N/A   Clear
8:54 AM 63.0 °F 45.0 °F 52% 30.00 in 10.0 mi NW 23.0 mph 32.2 mph N/A   Clear
9:54 AM 66.0 °F 42.1 °F 42% 30.01 in 10.0 mi WNW 18.4 mph 31.1 mph N/A   Clear
10:54 AM 68.0 °F 39.0 °F 35% 30.03 in 10.0 mi NW 25.3 mph 35.7 mph N/A   Clear
11:54 AM 70.0 °F 39.0 °F 32% 30.04 in 10.0 mi NW 16.1 mph 27.6 mph N/A   Clear
12:54 PM 72.0 °F 42.1 °F 34% 30.05 in 10.0 mi NW 20.7 mph 29.9 mph N/A   Clear
1:54 PM 73.0 °F 44.1 °F 35% 30.04 in 10.0 mi WNW 13.8 mph 27.6 mph N/A   Partly Cloudy
2:54 PM 73.9 °F 45.0 °F 35% 30.03 in 10.0 mi West 12.7 mph 24.2 mph N/A   Clear
3:54 PM 75.2 °F 46.4 °F 36% 30.02 in 10.0 mi West 17.3 mph 25.3 mph N/A   Clear
4:54 PM 75.0 °F 46.0 °F 36% 30.01 in 10.0 mi West 18.4 mph 27.6 mph N/A   Clear
5:54 PM 73.9 °F 48.9 °F 41% 30.00 in 10.0 mi West 13.8 mph 23.0 mph N/A   Clear
6:54 PM 73.0 °F 52.0 °F 48% 30.00 in 10.0 mi West 15.0 mph 20.7 mph N/A   Clear
7:54 PM 71.1 °F 52.0 °F 51% 30.00 in 10.0 mi West 10.4 mph - N/A   Clear
8:54 PM 69.1 °F 50.0 °F 51% 30.01 in 10.0 mi West 10.4 mph - N/A   Clear
9:54 PM 68.0 °F 48.0 °F 49% 30.04 in 10.0 mi WSW 11.5 mph - N/A   Clear
10:54 PM 66.0 °F 46.9 °F 50% 30.06 in 10.0 mi West 10.4 mph - N/A   Clear
11:54 PM 64.9 °F 46.0 °F 50% 30.06 in 10.0 mi SW 10.4 mph - N/A   Clear